EW4264 Weather Reports


Display with metric or nautical units.
time (UTC)temp
F
wind
direction
speed
MPH
gust
MPH
rain 1hr
in
rain 24hr
in
rain mn
in
humidity
%
barometer
mb
20180720104238 77 193 1.0 8.0 0.00 0.00 0.00 87 1011.8
20180720102737 77 51 1.0 5.0 0.00 0.00 0.00 86 1011.5
20180720101235 77 281 0.0 2.0 0.00 0.00 0.00 85 1011.5
20180720095733 78 345 1.0 5.0 0.00 0.00 0.00 85 1011.4
20180720094234 78 30 1.0 5.0 0.00 0.00 0.00 85 1011.4
20180720092730 78 22 2.0 9.0 0.00 0.00 0.00 84 1011.2
20180720091228 78 26 3.0 9.0 0.00 0.00 0.00 83 1011.0
20180720085730 79 355 2.0 6.0 0.00 0.00 0.00 83 1010.9
20180720084228 79 69 2.0 8.0 0.00 0.00 0.00 83 1010.7
20180720082723 79 288 1.0 10.0 0.00 0.00 0.00 82 1010.6
20180720081222 80 142 3.0 9.0 0.00 0.00 0.00 82 1010.6
20180720075719 80 59 3.0 8.0 0.00 0.00 0.00 82 1010.7
20180720074217 80 182 3.0 12.0 0.00 0.00 0.00 83 1010.6
20180720072717 81 207 3.0 11.0 0.00 0.00 0.00 83 1010.6
20180720071215 81 94 3.0 9.0 0.00 0.00 0.00 82 1010.7
20180720065715 81 226 6.0 17.0 0.00 0.00 0.00 82 1010.6
20180720064209 82 360 4.0 14.0 0.00 0.00 0.00 81 1010.7
20180720062708 82 74 3.0 13.0 0.00 0.00 0.00 80 1011.0
20180720061204 83 50 5.0 17.0 0.00 0.00 0.00 79 1010.9
20180720055703 83 329 10.0 19.0 0.00 0.00 0.00 77 1010.9
20180720054259 84 28 8.0 17.0 0.00 0.00 0.00 74 1010.9
20180720052653 84 323 7.0 17.0 0.00 0.00 0.00 71 1011.1
20180720051151 85 38 6.0 14.0 0.00 0.00 0.00 69 1011.2
20180720045648 85 346 6.0 15.0 0.00 0.00 0.00 65 1011.3
20180720044148 86 351 4.0 17.0 0.00 0.00 0.00 61 1011.4
20180720042645 87 360 9.0 15.0 0.00 0.00 0.00 53 1011.2
20180720041145 88 5 7.0 16.0 0.00 0.00 0.00 47 1011.2
20180720035647 88 338 8.0 13.0 0.00 0.00 0.00 44 1011.1
20180720034144 89 28 6.0 14.0 0.00 0.00 0.00 43 1011.0
20180720032646 89 90 4.0 11.0 0.00 0.00 0.00 42 1010.7
20180720031143 90 5 7.0 12.0 0.00 0.00 0.00 42 1010.4
20180720025647 90 9 4.0 10.0 0.00 0.00 0.00 42 1010.3
20180720024143 91 344 4.0 11.0 0.00 0.00 0.00 41 1010.0
20180720022640 91 360 4.0 11.0 0.00 0.00 0.00 41 1009.8
20180720021144 92 5 5.0 12.0 0.00 0.00 0.00 40 1009.7
20180720015644 93 21 7.0 11.0 0.00 0.00 0.00 38 1009.4
20180720014139 93 346 4.0 11.0 0.00 0.00 0.00 38 1009.4
20180720012644 94 344 4.0 11.0 0.00 0.00 0.00 38 1009.3
20180720011139 95 259 4.0 13.0 0.00 0.00 0.00 38 1009.1
20180720005637 96 360 6.0 15.0 0.00 0.00 0.00 37 1009.2
20180720004137 96 12 4.0 15.0 0.00 0.00 0.00 37 1009.0
20180720002635 97 337 6.0 12.0 0.00 0.00 0.00 32 1008.9
20180720001134 97 325 9.0 19.0 0.00 0.00 0.00 32 1008.6
20180719235634 98 5 6.0 13.0 0.00 0.00 0.00 30 1008.6
20180719234137 98 312 8.0 15.0 0.00 0.00 0.00 30 1008.6
20180719232634 98 355 7.0 12.0 0.00 0.00 0.00 31 1008.6
20180719231135 99 330 6.0 17.0 0.00 0.00 0.00 31 1008.7
20180719225630 99 329 7.0 14.0 0.00 0.00 0.00 30 1008.7
20180719224133 100 355 9.0 16.0 0.00 0.00 0.00 30 1008.8
20180719222629 100 355 5.0 12.0 0.00 0.00 0.00 31 1008.9
20180719221132 100 5 8.0 15.0 0.00 0.00 0.00 29 1008.9
20180719215632 100 340 6.0 14.0 0.00 0.00 0.00 31 1009.1
20180719214129 101 346 5.0 14.0 0.00 0.00 0.00 30 1009.1
20180719212626 100 5 2.0 12.0 0.00 0.00 0.00 30 1009.2
20180719211123 101 20 3.0 11.0 0.00 0.00 0.00 30 1009.3
20180719205621 101 32 5.0 12.0 0.00 0.00 0.00 30 1009.5
20180719204219 101 348 4.0 12.0 0.00 0.00 0.00 30 1009.6
20180719202622 100 347 10.0 16.0 0.00 0.00 0.00 30 1009.7
20180719201117 102 148 1.0 8.0 0.00 0.00 0.00 30 1009.8
20180719195614 101 350 2.0 9.0 0.00 0.00 0.00 31 1010.1
20180719194114 101 137 2.0 8.0 0.00 0.00 0.00 30 1010.2
20180719192607 100 109 4.0 11.0 0.00 0.00 0.00 30 1010.4
20180719191108 100 128 4.0 9.0 0.00 0.00 0.00 30 1010.5
20180719185603 99 306 3.0 8.0 0.00 0.00 0.00 31 1010.6
20180719184059 99 145 4.0 12.0 0.00 0.00 0.00 31 1010.8
20180719182558 98 43 3.0 13.0 0.00 0.00 0.00 29 1011.0
20180719181054 98 343 3.0 9.0 0.00 0.00 0.00 30 1011.3
20180719175555 98 49 3.0 9.0 0.00 0.00 0.00 32 1011.5
20180719174046 97 305 3.0 12.0 0.00 0.00 0.00 33 1011.7
20180719172543 96 325 5.0 13.0 0.00 0.00 0.00 34 1011.7
20180719171041 96 27 7.0 16.0 0.00 0.00 0.00 34 1011.8
20180719165537 95 123 4.0 11.0 0.00 0.00 0.00 37 1012.0
20180719164036 94 150 4.0 13.0 0.00 0.00 0.00 37 1012.2
20180719162534 93 14 3.0 10.0 0.00 0.00 0.00 41 1012.3
20180719161030 92 97 5.0 10.0 0.00 0.00 0.00 47 1012.2
20180719155529 91 5 5.0 12.0 0.00 0.00 0.00 44 1012.3
20180719154029 90 5 2.0 7.0 0.00 0.00 0.00 52 1012.5
20180719152518 89 136 1.0 9.0 0.00 0.00 0.00 56 1012.5
20180719151020 88 117 3.0 9.0 0.00 0.00 0.00 56 1012.6
20180719145515 87 24 1.0 5.0 0.00 0.00 0.00 63 1012.6
20180719144011 86 11 3.0 8.0 0.00 0.00 0.00 65 1012.5
20180719142508 85 348 3.0 6.0 0.00 0.00 0.00 68 1012.5
20180719141015 84 142 2.0 8.0 0.00 0.00 0.00 70 1012.6
20180719135507 82 126 1.0 7.0 0.00 0.00 0.00 75 1012.6
20180719134004 81 346 1.0 8.0 0.00 0.00 0.00 79 1012.6
20180719132500 80 83 0.0 3.0 0.00 0.00 0.00 82 1012.5
20180719131000 79 324 0.0 3.0 0.00 0.00 0.00 85 1012.3
20180719125458 78 5 1.0 4.0 0.00 0.00 0.00 87 1012.3
20180719123955 77 332 0.0 3.0 0.00 0.00 0.00 89 1012.1
20180719122452 76 350 1.0 4.0 0.00 0.00 0.00 89 1011.9
20180719120951 76 360 1.0 3.0 0.00 0.00 0.00 90 1011.8
20180719115450 76 351 1.0 3.0 0.00 0.00 0.00 89 1011.7
20180719113946 77 107 0.0 0.0 0.00 0.00 0.00 87 1011.6
20180719112446 77 107 0.0 2.0 0.00 0.00 0.00 87 1011.6
20180719110942 77 5 0.0 2.0 0.00 0.00 0.00 86 1011.5
20180719105444 78 32 1.0 5.0 0.00 0.00 0.00 86 1011.4